Hourly Data Report for October 15, 2004

SHERBROOKE A
QUEBEC

45°26'00.000" N
71°41'00.000" W
241.40 m
7028124
71610
YSC

Download Data

Hourly Data (October 2004)
Hourly Data Report for October 15, 2004
TIME
LST
Temp Definition
°C
Dew Point Definition
°C
Rel Hum Definition
%
Precip. Amount Definition
mm

Wind Dir Definition
10's deg

Wind Spd Definition
km/h
Visibility Definition
km
Stn Press Definition
kPa
Hmdx Definition


Wind Chill Definition


Weather Definition


00:00 11.1 8.7 85   14 13 4.8 97.72     Moderate Rain
01:00 10.1 8.8 92   4 7 15.0 97.67     Rain
02:00 9.5 8.8 95     0 15.0 97.60      
03:00 9.7 8.5 92     0 15.0 97.61      
04:00 9.6 8.4 92   6 4 8.0 97.62     Rain
05:00 9.5 8.7 95   7 6 11.3 97.60     Rain
06:00 9.6 8.9 95   5 7 6.4 97.60     Rain
07:00 9.8 9.2 96   5 7 16.1 97.59     Rain
08:00 10.2 9.6 96   6 7 3.2 97.57     Drizzle, Fog
09:00 11.0 10.3 95   6 6 19.3 97.52     Cloudy
10:00 11.4 10.8 96   6 6 12.9 97.46     Rain
11:00 12.3 11.6 95     0 16.1 97.45     Rain
12:00 12.3 11.6 95   1 4 12.9 97.37     Rain
13:00 13.2 12.4 95   5 6 8.0 97.36     Rain, Fog
14:00 13.7 12.8 94   9 4 24.1 97.28     Rain
15:00 14.2 12.7 91   11 9 24.1 97.25     Mostly Cloudy
16:00 13.5 12.2 92   10 7 24.1 97.25     Mostly Cloudy
17:00 12.5 11.0 91   10 7 15.0 97.24      
18:00 12.2 10.7 91   8 9 15.0 97.24      
19:00 12.3 10.6 89   10 7 15.0 97.16      
20:00 11.4 10.4 94     0 15.0 97.17      
21:00 12.3 10.5 89   12 13 15.0 97.09     Rain
22:00 11.4 10.7 95   5 7 15.0 96.91      
23:00 11.4 10.7 95   6 7 15.0 96.84     Rain

Notes on Data Quality.

Legend

  • E = Estimated
  • M = Missing
  • NA = Not Available*
  • [empty] = Indicates an unobserved value
Date modified: